Find Local Weather

World > North America > United States > Ohio

Enon Beach Recreation Park, Ohio Regional Weather

Enon Road and Interstate, Donnelsville, OH 45319
Lat: 39.92N, Lon: 83.95W
Wx Zone: OHZ053
Feedback
Expires:201810230200;;590402
ASUS41 KCLE 230102
RWRCLE
OHIO REGIONAL WEATHER ROUNDUP
NATIONAL WEATHER SERVICE CLEVELAND, OH
900 PM EDT MON OCT 22 2018

NOTE: "FAIR" INDICATES FEW OR NO CLOUDS BELOW 12,000 FEET WITH NO
SIGNIFICANT WEATHER AND/OR OBSTRUCTIONS TO VISIBILITY.


OHZ042-051>053-060>062-070>072-077>081-230200-
  SOUTHWEST OHIO
  
CITY           SKY/WX    TMP DP  RH WIND       PRES   REMARKS
CINC-COVINGTON FAIR      52  33  48 SW8       30.12R                  
CINC-LUNKEN    FAIR      47  38  71 SW8       30.12S                  
HAMILTON       FAIR      51  34  52 SW5       30.12R                  
DAYTON         FAIR      50  38  63 SW9       30.09R                  
WRIGHT-PAT AFB FAIR      49  36  60 SW8       30.08R                  
DAYTON GENERAL FAIR      57  33  40 SW9       30.09R                  
WILMINGTON     FAIR      52  32  46 SW10      30.10R                  
$$


SKY/WX - Weather  TMP - Temperature  DP - Dew Point  RH - Relative Humidity
WIND - Wind Direction/Speed PRES - Barometric Pressure